User: anonymous   Login
Location: Unspecified
(0.0000°N, 0.0000°E)
Time: 16:05:15
(UTC+00:00)
Language:

Skynet 4D - Orbit

View from above orbital plane
View from above orbital plane
View from above satellite
View from above satellite

Ground track
Ground track

The orbit data is extracted from the following two-line orbital elements,

1 25134U 98002A   17115.69523473 +.00000026 +00000-0 +00000-0 0  9996
2 25134 010.4780 031.7713 0002254 080.6507 030.0002 00.99152660070323
Epoch (UTC): 25 April 2017 16:41:08
Eccentricity: 0.0002254
inclination: 10.4780°
perigee height: 36093 km
apogee height: 36112 km
right ascension of ascending node: 31.7713°
argument of perigee: 80.6507°
revolutions per day: 0.99152660
mean anomaly at epoch: 30.0002°
orbit number at epoch: 7032

The dashed part of the orbit path shows where the satellite is in the earth's shadow,  

DLR